O/OREOS (USA 219)

Last updated on Sun Aug 09 2026 00:03:15 GMT+0000 (Coordinated Universal Time)

1 37224U 10062C 26220.62985006 .00000983 00000+0 98132-4 0 9991 2 37224 71.9714 321.5280 0015682 319.8232 40.1778 14.93934938124478
UTC large
Height (km)
Speed (km/s)
/
Latitude / Longitude
Inclination (degrees)
Orbital Period (minutes)
Azimuth
Elevation
Range (km)
Doppler Factor

Next 0 passes for location: London (51.5072 / 0.1276)

No passes found over London.
O/OREOS (USA 219)